| time (UTC) | temp F | wind direction | speed knots | gust knots | rain 1hr in | rain 24hr in | rain mn in | humidity % | barometer mb |
| 20260507202005 | 65 | 242 | 12.2 | 25.2 | 0.00 | 0.00 | 0.00 | 100 | 1013.0 |
| 20260507201504 | 65 | 264 | 13.9 | 19.1 | 0.00 | 0.00 | 0.00 | 100 | 1013.0 |
| 20260507200005 | 62 | 248 | 6.1 | 15.6 | 0.00 | 0.00 | 0.00 | 100 | 1013.2 |
| 20260507195005 | 61 | 252 | 6.1 | 11.3 | 0.00 | 0.00 | 0.00 | 100 | 1013.4 |
| 20260507194504 | 61 | 266 | 10.4 | 13.9 | 0.00 | 0.00 | 0.00 | 100 | 1013.4 |
| 20260507194004 | 62 | 269 | 12.2 | 17.4 | 0.00 | 0.00 | 0.00 | 100 | 1013.2 |
| 20260507193005 | 63 | 251 | 10.4 | 17.4 | 0.00 | 0.00 | 0.00 | 100 | 1013.3 |
| 20260507192005 | 63 | 238 | 12.2 | 20.0 | 0.00 | 0.00 | 0.00 | 100 | 1013.4 |
| 20260507191005 | 64 | 242 | 14.8 | 22.6 | 0.00 | 0.00 | 0.00 | 100 | 1013.3 |
| 20260507190505 | 65 | 266 | 13.9 | 17.4 | 0.00 | 0.00 | 0.00 | 100 | 1013.3 |
| 20260507183005 | 61 | 254 | 8.7 | 17.4 | 0.00 | 0.00 | 0.00 | 100 | 1013.6 |
| 20260507181505 | 61 | 232 | 8.7 | 13.9 | 0.00 | 0.00 | 0.00 | 100 | 1013.7 |
| 20260507181005 | 61 | 227 | 10.4 | 13.0 | 0.00 | 0.00 | 0.00 | 100 | 1013.8 |
| 20260507180005 | 63 | 265 | 10.4 | 14.8 | 0.00 | 0.00 | 0.00 | 100 | 1013.9 |
| 20260507175504 | 62 | 263 | 11.3 | 17.4 | 0.00 | 0.00 | 0.00 | 100 | 1013.9 |
| 20260507174505 | 62 | 236 | 8.7 | 18.2 | 0.00 | 0.00 | 0.00 | 100 | 1014.1 |
| 20260507174005 | 62 | 241 | 12.2 | 17.4 | 0.00 | 0.00 | 0.00 | 100 | 1014.2 |
| 20260507173505 | 62 | 256 | 14.8 | 19.1 | 0.00 | 0.00 | 0.00 | 100 | 1014.3 |
| 20260507173005 | 62 | 257 | 12.2 | 15.6 | 0.00 | 0.00 | 0.00 | 100 | 1014.4 |
| 20260507172005 | 61 | 206 | 7.8 | 17.4 | 0.00 | 0.00 | 0.00 | 100 | 1014.6 |
| 20260507170504 | 60 | 219 | 13.9 | 21.7 | 0.00 | 0.00 | 0.00 | 100 | 1014.7 |
| 20260507170005 | 60 | 224 | 6.1 | 17.4 | 0.00 | 0.00 | 0.00 | 100 | 1014.7 |
| 20260507165504 | 59 | 246 | 13.0 | 19.1 | 0.00 | 0.00 | 0.00 | 100 | 1014.7 |
| 20260507164505 | 60 | 236 | 12.2 | 19.1 | 0.00 | 0.00 | 0.00 | 100 | 1014.8 |
| 20260507163504 | 60 | 207 | 11.3 | 17.4 | 0.00 | 0.00 | 0.00 | 100 | 1014.9 |
| 20260507163004 | 60 | 244 | 13.0 | 20.0 | 0.00 | 0.00 | 0.00 | 100 | 1014.9 |
| 20260507161005 | 58 | 261 | 11.3 | 20.0 | 0.00 | 0.00 | 0.00 | 100 | 1014.9 |
| 20260507160504 | 58 | 247 | 10.4 | 13.9 | 0.00 | 0.00 | 0.00 | 100 | 1014.9 |
| 20260507152504 | 56 | 247 | 10.4 | 14.8 | 0.00 | 0.00 | 0.00 | 100 | 1015.2 |
| 20260507151005 | 56 | 222 | 9.6 | 12.2 | 0.00 | 0.00 | 0.00 | 100 | 1015.3 |
| 20260507150504 | 56 | 224 | 5.2 | 10.4 | 0.00 | 0.00 | 0.00 | 100 | 1015.4 |
| 20260507150005 | 56 | 236 | 8.7 | 15.6 | 0.00 | 0.00 | 0.00 | 100 | 1015.4 |
| 20260507145005 | 56 | 233 | 6.1 | 10.4 | 0.00 | 0.00 | 0.00 | 100 | 1015.6 |
| 20260507143505 | 54 | 247 | 8.7 | 13.0 | 0.00 | 0.00 | 0.00 | 100 | 1015.7 |
| 20260507142505 | 53 | 199 | 8.7 | 14.8 | 0.00 | 0.00 | 0.00 | 100 | 1016.2 |
| 20260507142004 | 52 | 197 | 6.1 | 12.2 | 0.00 | 0.00 | 0.00 | 100 | 1016.2 |
| 20260507141504 | 52 | 208 | 8.7 | 13.9 | 0.00 | 0.00 | 0.00 | 100 | 1016.2 |
| 20260507141004 | 52 | 212 | 7.8 | 13.0 | 0.00 | 0.00 | 0.00 | 100 | 1016.1 |
| 20260507140005 | 52 | 192 | 5.2 | 11.3 | 0.00 | 0.00 | 0.00 | 100 | 1016.1 |
| 20260507135504 | 53 | 195 | 9.6 | 13.9 | 0.00 | 0.00 | 0.00 | 100 | 1016.2 |
| 20260507135004 | 53 | 202 | 7.8 | 11.3 | 0.00 | 0.00 | 0.00 | 100 | 1016.2 |
| 20260507134004 | 52 | 205 | 5.2 | 8.7 | 0.00 | 0.00 | 0.00 | 100 | 1016.3 |
| 20260507133005 | 50 | 197 | 2.6 | 5.2 | 0.00 | 0.00 | 0.00 | 100 | 1016.4 |
| 20260507131505 | 46 | 179 | 0.9 | 2.6 | 0.00 | 0.00 | 0.00 | 100 | 1016.4 |
| 20260507125506 | 43 | 177 | 0.9 | 4.3 | 0.00 | 0.00 | 0.00 | 100 | 1016.6 |
| 20260507124004 | 40 | 124 | 3.5 | 4.3 | 0.00 | 0.00 | 0.00 | 100 | 1016.8 |
| 20260507123504 | 39 | 142 | 3.5 | 4.3 | 0.00 | 0.00 | 0.00 | 100 | 1016.9 |
| 20260507122504 | 38 | 131 | 1.7 | 2.6 | 0.00 | 0.00 | 0.00 | 100 | 1016.9 |
| 20260507120005 | 36 | 115 | 2.6 | 2.6 | 0.00 | 0.00 | 0.00 | 100 | 1016.9 |
| 20260507115505 | 35 | 119 | 1.7 | 5.2 | 0.00 | 0.00 | 0.00 | 100 | 1017.0 |
| 20260507114504 | 35 | 93 | 7.0 | 7.8 | 0.00 | 0.00 | 0.00 | 100 | 1016.9 |
| 20260507113504 | 33 | 87 | 5.2 | 6.1 | 0.00 | 0.00 | 0.00 | 100 | 1016.9 |
| 20260507113005 | 33 | 91 | 4.3 | 6.1 | 0.00 | 0.00 | 0.00 | 100 | 1017.0 |
| 20260507111004 | 32 | 118 | 2.6 | 2.6 | 0.00 | 0.00 | 0.00 | 100 | 1017.1 |
| 20260507110504 | 32 | 114 | 2.6 | 2.6 | 0.00 | 0.00 | 0.00 | 100 | 1017.1 |
| 20260507105504 | 32 | 106 | 2.6 | 2.6 | 0.00 | 0.00 | 0.00 | 100 | 1017.0 |
| 20260507104505 | 32 | 109 | 2.6 | 2.6 | 0.00 | 0.00 | 0.00 | 100 | 1017.2 |
| 20260507103004 | 31 | 97 | 2.6 | 2.6 | 0.00 | 0.00 | 0.00 | 100 | 1017.3 |
| 20260507102504 | 31 | 102 | 2.6 | 2.6 | 0.00 | 0.00 | 0.00 | 100 | 1017.2 |
| 20260507102006 | 32 | 97 | 2.6 | 2.6 | 0.00 | 0.00 | 0.00 | 100 | 1017.2 |
| 20260507101504 | 31 | 97 | 2.6 | 2.6 | 0.00 | 0.00 | 0.00 | 100 | 1017.4 |
| 20260507100505 | 31 | 94 | 1.7 | 2.6 | 0.00 | 0.00 | 0.00 | 100 | 1017.4 |
| 20260507095004 | 32 | 142 | 0.9 | 0.9 | 0.00 | 0.00 | 0.00 | 100 | 1017.6 |
| 20260507094004 | 31 | 155 | 1.7 | 1.7 | 0.00 | 0.00 | 0.00 | 100 | 1017.7 |
| 20260507093004 | 31 | 145 | 1.7 | 2.6 | 0.00 | 0.00 | 0.00 | 100 | 1017.7 |
| 20260507092504 | 31 | 137 | 0.9 | 1.7 | 0.00 | 0.00 | 0.00 | 100 | 1017.9 |
| 20260507091004 | 31 | 155 | 0.9 | 1.7 | 0.00 | 0.00 | 0.00 | 100 | 1018.1 |
| 20260507090005 | 32 | 155 | 0.9 | 1.7 | 0.00 | 0.00 | 0.00 | 100 | 1018.2 |
| 20260507085504 | 31 | 155 | 0.9 | 1.7 | 0.00 | 0.00 | 0.00 | 100 | 1018.3 |
| 20260507085004 | 31 | 155 | 0.9 | 1.7 | 0.00 | 0.00 | 0.00 | 100 | 1018.4 |
| 20260507084005 | 30 | 101 | 0.9 | 0.9 | 0.00 | 0.00 | 0.00 | 100 | 1018.5 |
| 20260507083504 | 30 | 101 | 0.9 | 0.9 | 0.00 | 0.00 | 0.00 | 100 | 1018.6 |
| 20260507083005 | 30 | 101 | 0.9 | 0.9 | 0.00 | 0.00 | 0.00 | 100 | 1018.5 |
| 20260507082004 | 31 | 99 | 2.6 | 2.6 | 0.00 | 0.00 | 0.00 | 100 | 1018.4 |
| 20260507081504 | 31 | 94 | 1.7 | 2.6 | 0.00 | 0.00 | 0.00 | 100 | 1018.4 |
| 20260507081004 | 31 | 187 | 0.9 | 1.7 | 0.00 | 0.00 | 0.00 | 100 | 1018.5 |
| 20260507080504 | 31 | 187 | 0.0 | 1.7 | 0.00 | 0.00 | 0.00 | 100 | 1018.7 |
| 20260507080005 | 31 | 187 | 0.0 | 0.9 | 0.00 | 0.00 | 0.00 | 100 | 1018.7 |
| 20260507075504 | 31 | 187 | 0.0 | 0.9 | 0.00 | 0.00 | 0.00 | 100 | 1018.7 |
| 20260507073004 | 33 | 187 | 0.9 | 0.9 | 0.00 | 0.00 | 0.00 | 100 | 1018.9 |
| 20260507070503 | 33 | 187 | 1.7 | 1.7 | 0.00 | 0.00 | 0.00 | 100 | 1019.3 |
| 20260507064004 | 33 | 199 | 0.0 | 0.0 | 0.00 | 0.00 | 0.00 | 100 | 1019.3 |
| 20260507063503 | 34 | 328 | 0.0 | 0.0 | 0.00 | 0.00 | 0.00 | 100 | 1019.3 |
| 20260507062004 | 34 | 328 | 0.0 | 0.0 | 0.00 | 0.00 | 0.00 | 100 | 1019.4 |
| 20260507055004 | 34 | 328 | 0.0 | 0.0 | 0.00 | 0.00 | 0.00 | 100 | 1019.6 |
| 20260507050504 | 35 | 328 | 0.0 | 0.0 | 0.00 | 0.00 | 0.00 | 100 | 1019.6 |
| 20260507050005 | 36 | 328 | 0.0 | 0.0 | 0.00 | 0.00 | 0.00 | 100 | 1019.6 |
| 20260507044004 | 36 | 328 | 0.0 | 0.0 | 0.00 | 0.00 | 0.00 | 100 | 1019.5 |
| 20260507043003 | 36 | 328 | 0.0 | 0.0 | 0.00 | 0.00 | 0.00 | 100 | 1019.2 |
| 20260507042503 | 37 | 328 | 0.0 | 0.0 | 0.00 | 0.00 | 0.00 | 100 | 1019.2 |
| 20260507041503 | 37 | 328 | 0.0 | 0.0 | 0.00 | 0.00 | 0.00 | 100 | 1019.2 |
| 20260507040505 | 38 | 328 | 0.0 | 0.0 | 0.00 | 0.00 | 0.00 | 100 | 1019.3 |
| 20260507040006 | 38 | 328 | 0.0 | 0.0 | 0.00 | 0.00 | 0.00 | 100 | 1019.4 |
| 20260507035006 | 38 | 328 | 0.0 | 0.0 | 0.00 | 0.00 | 0.00 | 100 | 1019.4 |
| 20260507034505 | 38 | 328 | 0.0 | 0.0 | 0.00 | 0.00 | 0.00 | 100 | 1019.3 |
| 20260507034005 | 39 | 328 | 0.0 | 0.0 | 0.00 | 0.00 | 0.00 | 100 | 1019.3 |
| 20260507033005 | 40 | 328 | 0.0 | 0.0 | 0.00 | 0.00 | 0.00 | 100 | 1019.4 |
| 20260507030506 | 41 | 328 | 0.0 | 0.9 | 0.00 | 0.00 | 0.00 | 100 | 1019.6 |
| 20260507025505 | 41 | 328 | 1.7 | 1.7 | 0.00 | 0.00 | 0.00 | 100 | 1019.6 |
| 20260507025005 | 42 | 328 | 1.7 | 2.6 | 0.00 | 0.00 | 0.00 | 100 | 1019.6 |
| 20260507024505 | 42 | 335 | 2.6 | 2.6 | 0.00 | 0.00 | 0.00 | 100 | 1019.6 |
| 20260507023505 | 41 | 355 | 2.6 | 2.6 | 0.00 | 0.00 | 0.00 | 100 | 1019.5 |
| 20260507023006 | 41 | 355 | 2.6 | 2.6 | 0.00 | 0.00 | 0.00 | 100 | 1019.4 |
| 20260507022506 | 41 | 348 | 1.7 | 2.6 | 0.00 | 0.00 | 0.00 | 100 | 1019.5 |
| 20260507022006 | 42 | 333 | 1.7 | 2.6 | 0.00 | 0.00 | 0.00 | 100 | 1019.3 |
| 20260507020505 | 43 | 10 | 2.6 | 2.6 | 0.00 | 0.00 | 0.00 | 100 | 1019.3 |
| 20260507020005 | 45 | 323 | 1.7 | 1.7 | 0.00 | 0.00 | 0.00 | 100 | 1019.2 |
| 20260507015006 | 46 | 315 | 1.7 | 2.6 | 0.00 | 0.00 | 0.00 | 100 | 1019.1 |
| 20260507013006 | 47 | 305 | 2.6 | 4.3 | 0.00 | 0.00 | 0.00 | 100 | 1018.9 |
| 20260507011005 | 48 | 324 | 2.6 | 4.3 | 0.00 | 0.00 | 0.00 | 100 | 1018.7 |
| 20260507010505 | 48 | 320 | 2.6 | 4.3 | 0.00 | 0.00 | 0.00 | 100 | 1018.7 |
| 20260507003006 | 51 | 302 | 9.6 | 13.9 | 0.00 | 0.00 | 0.00 | 100 | 1018.6 |
| 20260507002506 | 51 | 313 | 7.8 | 13.9 | 0.00 | 0.00 | 0.00 | 100 | 1018.7 |
| 20260507002005 | 52 | 303 | 10.4 | 13.9 | 0.00 | 0.00 | 0.00 | 100 | 1018.7 |
| 20260507001005 | 52 | 293 | 11.3 | 13.0 | 0.00 | 0.00 | 0.00 | 100 | 1018.7 |
| 20260507000505 | 52 | 305 | 12.2 | 15.6 | 0.00 | 0.00 | 0.00 | 100 | 1018.7 |
| 20260506235005 | 52 | 291 | 11.3 | 17.4 | 0.00 | 0.00 | 0.00 | 100 | 1018.8 |
| 20260506234505 | 52 | 283 | 11.3 | 18.2 | 0.00 | 0.00 | 0.00 | 100 | 1018.7 |
| 20260506232505 | 53 | 305 | 14.8 | 18.2 | 0.00 | 0.00 | 0.00 | 100 | 1018.6 |
| 20260506232006 | 53 | 312 | 13.0 | 17.4 | 0.00 | 0.00 | 0.00 | 100 | 1018.6 |
| 20260506231506 | 53 | 310 | 11.3 | 14.8 | 0.00 | 0.00 | 0.00 | 100 | 1018.6 |
| 20260506230505 | 52 | 299 | 13.0 | 15.6 | 0.00 | 0.00 | 0.00 | 100 | 1018.6 |
| 20260506225506 | 53 | 280 | 12.2 | 17.4 | 0.00 | 0.00 | 0.00 | 100 | 1018.8 |
| 20260506224505 | 53 | 293 | 13.0 | 17.4 | 0.00 | 0.00 | 0.00 | 100 | 1018.7 |
| 20260506224005 | 53 | 299 | 13.9 | 19.1 | 0.00 | 0.00 | 0.00 | 100 | 1018.7 |
| 20260506223505 | 53 | 296 | 16.5 | 21.7 | 0.00 | 0.00 | 0.00 | 100 | 1018.8 |
| 20260506223005 | 53 | 281 | 14.8 | 20.9 | 0.00 | 0.00 | 0.00 | 100 | 1018.7 |
| 20260506221505 | 54 | 279 | 10.4 | 15.6 | 0.00 | 0.00 | 0.00 | 100 | 1018.8 |
| 20260506214005 | 53 | 289 | 13.9 | 22.6 | 0.00 | 0.00 | 0.00 | 100 | 1018.8 |
| 20260506213505 | 53 | 287 | 11.3 | 17.4 | 0.00 | 0.00 | 0.00 | 100 | 1018.8 |
| 20260506213005 | 54 | 294 | 13.9 | 19.1 | 0.00 | 0.00 | 0.00 | 100 | 1018.8 |
| 20260506212005 | 54 | 289 | 9.6 | 13.0 | 0.00 | 0.00 | 0.00 | 100 | 1018.9 |
| 20260506211005 | 55 | 282 | 13.9 | 18.2 | 0.00 | 0.00 | 0.00 | 100 | 1019.1 |
| 20260506210505 | 53 | 291 | 15.6 | 20.0 | 0.00 | 0.00 | 0.00 | 100 | 1019.0 |
| 20260506210004 | 53 | 269 | 8.7 | 14.8 | 0.00 | 0.00 | 0.00 | 100 | 1018.9 |
| 20260506205005 | 52 | 279 | 11.3 | 19.1 | 0.00 | 0.00 | 0.00 | 100 | 1019.0 |
| 20260506203505 | 53 | 304 | 12.2 | 22.6 | 0.00 | 0.00 | 0.00 | 100 | 1019.3 |